FW4331 Weather Reports


time (UTC)temp
C
wind
direction
speed
KPH
gust
KPH
rain 1hr
cm
rain 24hr
cm
rain mn
cm
humidity
%
barometer
mb
20260505170045 26 217 6.4 24.1 0.00 0.00 0.00 26 1009.5
20260505164543 26 229 9.7 22.5 0.00 0.00 0.00 25 1009.7
20260505163039 26 281 9.7 22.5 0.00 0.00 0.00 27 1009.9
20260505161538 25 269 11.3 17.7 0.00 0.00 0.00 26 1010.1
20260505153025 25 286 6.4 17.7 0.00 0.00 0.00 28 1010.6
20260505151524 24 212 4.8 20.9 0.00 0.00 0.00 28 1010.6
20260505140113 21 199 8.0 14.5 0.00 0.00 0.00 36 1010.8
20260505124534 18 286 1.6 6.4 0.00 0.00 0.00 43 1011.1
20260505123026 17 290 3.2 8.0 0.00 0.00 0.00 44 1011.1
20260505121521 16 274 1.6 11.3 0.00 0.00 0.00 46 1011.2
20260505120018 16 259 1.6 8.0 0.00 0.00 0.00 46 1011.1
20260505114513 16 269 4.8 12.9 0.00 0.00 0.00 46 1011.0
20260505113009 16 262 0.0 9.7 0.00 0.00 0.00 47 1010.9
20260505111510 15 238 3.2 11.3 0.00 0.00 0.00 47 1010.6
20260505101555 15 248 1.6 14.5 0.00 0.00 0.00 48 1010.1
20260505100049 15 203 3.2 12.9 0.00 0.00 0.00 49 1010.1
20260505094555 15 231 3.2 12.9 0.00 0.00 0.00 49 1010.1
20260505093052 15 231 3.2 14.5 0.00 0.00 0.00 49 1009.9
20260505091541 15 282 3.2 9.7 0.00 0.00 0.00 49 1009.9
20260505090037 15 257 4.8 12.9 0.00 0.00 0.00 49 1009.8
20260505084536 15 221 3.2 11.3 0.00 0.00 0.00 49 1009.8
20260505083016 15 224 0.0 14.5 0.00 0.00 0.00 49 1009.7
20260505081514 15 276 1.6 14.5 0.00 0.00 0.00 49 1009.7
20260505080023 15 234 6.4 17.7 0.00 0.00 0.00 49 1009.5
20260505074509 15 248 4.8 11.3 0.00 0.00 0.00 51 1009.6
20260505073006 15 246 0.0 11.3 0.00 0.00 0.00 51 1009.4
20260505071503 15 234 3.2 11.3 0.00 0.00 0.00 52 1009.4
20260505070002 14 215 0.0 9.7 0.00 0.00 0.00 55 1009.4
20260505064559 13 230 0.0 1.6 0.00 0.00 0.00 57 1009.3
20260505063057 13 246 0.0 3.2 0.00 0.00 0.00 56 1009.2
20260505061613 13 224 0.0 3.2 0.00 0.00 0.00 56 1009.2
20260505060057 13 258 0.0 0.0 0.00 0.00 0.00 58 1009.3
20260505054555 13 257 0.0 0.0 0.00 0.00 0.00 57 1009.3
20260505053045 14 257 0.0 0.0 0.00 0.00 0.00 56 1009.3
20260505051542 14 217 0.0 0.0 0.00 0.00 0.00 56 1009.4
20260505041531 15 238 0.0 0.0 0.00 0.00 0.00 54 1009.3
20260505040037 15 238 0.0 0.0 0.00 0.00 0.00 52 1009.3
20260505034535 16 238 0.0 0.0 0.00 0.00 0.00 50 1009.6
20260505033022 17 254 0.0 0.0 0.00 0.00 0.00 48 1009.5
20260505031523 17 264 0.0 1.6 0.00 0.00 0.00 47 1009.6
20260505030020 17 219 0.0 1.6 0.00 0.00 0.00 45 1009.5
20260505024519 18 240 0.0 3.2 0.00 0.00 0.00 44 1009.5
20260505023016 18 264 0.0 6.4 0.00 0.00 0.00 42 1009.4
20260505021515 19 259 0.0 8.0 0.00 0.00 0.00 41 1009.3
20260505020015 20 236 0.0 11.3 0.00 0.00 0.00 39 1009.3
20260505014514 20 251 4.8 16.1 0.00 0.00 0.00 38 1009.2
20260505013007 20 226 0.0 11.3 0.00 0.00 0.00 36 1009.0
20260505011506 20 207 3.2 14.5 0.00 0.00 0.00 35 1008.9
20260505010005 21 265 0.0 6.4 0.00 0.00 0.00 33 1008.7
20260505004506 21 272 3.2 12.9 0.00 0.00 0.00 32 1008.6
20260505003059 21 264 3.2 11.3 0.00 0.00 0.00 31 1008.5
20260505001559 22 269 1.6 14.5 0.00 0.00 0.00 31 1008.5
20260505000107 22 255 4.8 11.3 0.00 0.00 0.00 30 1008.6
20260504234605 22 226 6.4 17.7 0.00 0.00 0.00 30 1008.4
20260504233049 22 239 4.8 20.9 0.00 0.00 0.00 29 1008.1
20260504231546 22 240 8.0 22.5 0.00 0.00 0.00 29 1008.1
20260504230044 23 217 12.9 24.1 0.00 0.00 0.00 27 1008.1
20260504224540 23 222 6.4 22.5 0.00 0.00 0.00 27 1008.0
20260504223037 23 226 6.4 25.7 0.00 0.00 0.00 26 1007.9
20260504221532 24 262 8.0 20.9 0.00 0.00 0.00 25 1007.9
20260504220042 24 258 12.9 25.7 0.00 0.00 0.00 25 1008.1
20260504214524 24 159 9.7 22.5 0.00 0.00 0.00 24 1008.2
20260504213020 24 246 9.7 25.7 0.00 0.00 0.00 24 1008.0
20260504211517 23 228 8.0 24.1 0.00 0.00 0.00 24 1008.1
20260504210016 24 222 14.5 24.1 0.00 0.00 0.00 22 1008.1
20260504204516 25 200 12.9 27.4 0.00 0.00 0.00 21 1008.1
20260504203012 24 217 8.0 19.3 0.00 0.00 0.00 22 1008.0
20260504201509 25 186 8.0 20.9 0.00 0.00 0.00 20 1008.2
20260504200007 24 244 9.7 22.5 0.00 0.00 0.00 21 1008.3
20260504194502 25 266 8.0 19.3 0.00 0.00 0.00 21 1008.6
20260504193113 24 253 9.7 22.5 0.00 0.00 0.00 21 1009.0
20260504191555 25 240 8.0 19.3 0.00 0.00 0.00 20 1009.0
20260504190056 25 255 4.8 16.1 0.00 0.00 0.00 23 1009.3
20260504184546 24 205 4.8 22.5 0.00 0.00 0.00 21 1009.6
20260504183054 23 291 8.0 17.7 0.00 0.00 0.00 22 1009.9
20260504181538 23 165 4.8 29.0 0.00 0.00 0.00 21 1010.1
20260504180054 23 226 8.0 22.5 0.00 0.00 0.00 22 1010.4
20260504174533 23 302 8.0 19.3 0.00 0.00 0.00 23 1010.6
20260504173027 22 192 11.3 20.9 0.00 0.00 0.00 22 1010.9
20260504171524 22 150 6.4 24.1 0.00 0.00 0.00 23 1011.0